Tracking 23752 objects as of 23-Oct-2021
HD Live streaming from Space Station
objects crossing your sky now

COSMOS 1375

Track COSMOS 1375 now!
10-day predictions
COSMOS 1375 is classified as:


NORAD ID: 13259
Int'l Code: 1982-055A
Perigee: 937.0 km
Apogee: 981.8 km
Inclination: 65.8 °
Period: 104.1 minutes
Semi major axis: 7330 km
RCS: 0.955 m2 (medium)
Launch date: June 6, 1982
Source: Commonwealth of Independent States (former USSR) (CIS)
Launch site: PLESETSK MISSILE AND SPACE COMPLEX (PKMTR)
aabbcc
Your satellite tracking list
Your tracking list is empty




NASA's NSSDC Master Catalog

Two Line Element Set (TLE):
1 13259U 82055A   21295.51956386  .00000049  00000-0  11906-3 0  9995
2 13259  65.8334 345.9192 0030601 287.0469  72.7246 13.83279892979049
Source of the keplerian elements: AFSPC